Tracking 29892 objects as of 21-Nov-2024
HD Live streaming from Space Station
objects crossing your sky now

CLUSTER II-FM6

Track CLUSTER II-FM6 now!
CLUSTER II-FM6 is classified as:


NORAD ID: 26410
Int'l Code: 2000-041A
Perigee: 8,887.9 km
Apogee: 123,940.1 km
Inclination: 141.2 °
Period: 3,257.0 minutes
Semi major axis: 72784 km
RCS: 1.9953 m2 (large)
Launch date: July 16, 2000
Source: European Space Agency (ESA)
Launch site: TYURATAM MISSILE AND SPACE COMPLEX (TTMTR)
Your satellite tracking list
Your tracking list is empty




NASA's NSSDC Master Catalog

Two Line Element Set (TLE):
1 26410U 00041A   24327.64101409  .00000577  00000-0  00000-0 0  9990
2 26410 141.2005   2.8114 7903569 217.9252   0.3489  0.44212012 17740
Source of the keplerian elements: AFSPC